EHI
0 0 0 0 0 0 0 0 0 0 0 0 0 0 0 0 0 0 0 0 1 1 2 3 4 6 7 6 4 3 3 2 1 0 0 0 0 0 0 0 1 2 3 2 0 0 1 2 3
0 0 0 0 0 0 0 0 0 0 0 0 0 0 0 0 0 0 0 1 1 1 2 3 4 5 6 6 4 3 3 2 1 0 0 0 0 0 0 0 0 1 1 1 0 0 1 2 3
0 0 0 0 0 0 0 0 0 0 0 0 0 0 0 0 0 0 0 1 2 1 2 3 4 4 5 5 4 3 3 3 1 0 0 0 0 0 0 0 0 0 0 0 0 0 1 2 2
0 0 0 0 0 0 0 0 0 0 0 0 0 0 0 0 0 0 0 1 1 0 1 2 3 3 4 5 4 3 3 3 2 1 0 0 0 0 0 0 0 0 0 0 0 0 0 1 1
0 0 0 0 0 0 0 0 0 0 0 0 0 0 0 0 1 1 1 0 0 0 0 1 2 3 4 5 4 3 3 3 2 1 0 0 0 0 0 0 0 0 0 0 0 0 0 0 0
0 0 0 0 0 0 0 0 0 0 0 0 0 0 0 0 1 2 1 0 0 0 0 1 2 3 4 4 4 3 3 3 3 1 0 0 0 0 0 0 0 0 0 0 0 0 0 0 0
0 0 0 0 0 0 0 0 0 0 0 0 0 0 0 0 1 1 0 0 0 0 0 1 1 2 3 3 3 2 2 2 2 1 0 0 0 0 0 0 0 0 0 0 0 0 0 0 0
0 0 0 0 0 0 0 0 0 0 0 0 0 0 0 0 1 1 0 0 0 1 0 0 0 1 1 1 1 1 1 1 1 1 0 0 0 0 0 0 0 0 0 0 0 0 0 0 0
0 0 0 0 0 0 0 0 0 0 0 0 0 0 0 1 2 2 1 0 0 0 0 0 0 0 0 0 0 0 0 0 0 0 0 0 0 0 0 0 0 0 0 0 0 0 0 0 0
0 0 0 0 0 0 0 0 0 0 0 0 0 0 0 1 2 3 1 0 0 0 0 0 0 0 0 0 0 0 0 0 0 0 0 0 0 0 0 0 0 0 0 0 0 0 0 0 0
0 0 0 0 0 0 0 0 0 0 0 0 0 0 0 0 1 1 0 0 0 0 0 0 0 0 0 0 0 1 0 0 0 0 0 0 0 0 0 0 0 0 0 0 0 0 0 0 0
0 0 0 0 0 0 0 0 0 0 0 0 0 0 0 0 0 0 0 0 0 0 0 0 0 0 0 0 0 0 0 0 0 0 0 0 0 0 0 0 0 0 0 0 0 0 0 0 0
0 0 0 0 0 0 0 0 0 0 0 0 0 0 0 0 0 0 0 0 0 0 0 0 0 0 0 0 0 0 0 0 0 0 0 0 0 0 0 0 0 0 0 0 0 0 0 0 0
0 0 0 0 0 0 0 0 0 0 0 0 0 0 0 0 0 0 0 0 0 0 0 0 0 0 0 0 0 0 0 0 0 0 0 0 0 0 0 0 0 0 0 0 0 0 0 0 0
0 0 0 0 0 0 0 0 0 0 0 0 0 0 0 0 0 0 0 0 0 0 0 0 0 0 0 0 0 0 0 0 0 0 0 0 0 0 0 0 0 0 0 0 0 0 0 0 0
0 0 0 0 0 0 0 0 0 0 0 0 0 0 0 0 0 0 0 0 0 0 0 0 0 0 0 0 0 0 0 0 0 0 0 0 0 0 0 0 0 0 0 0 0 0 0 0 0
0 0 0 0 0 0 0 0 0 0 0 0 0 0 0 0 0 0 0 0 0 0 0 0 0 0 0 0 0 0 0 0 0 0 0 0 0 0 0 0 0 0 0 0 0 0 0 0 0
0 0 0 0 0 0 0 0 0 0 0 0 0 0 0 0 0 0 0 0 0 0 0 0 0 0 0 0 0 0 0 0 0 0 0 0 0 0 0 0 0 0 0 0 0 0 0 0 0
0 0 0 0 0 0 0 0 0 0 0 0 0 0 0 0 0 0 0 0 0 0 0 0 0 0 0 0 0 0 0 0 0 0 0 0 0 0 0 0 0 0 0 0 0 0 0 0 0
0 0 0 0 0 0 0 0 0 0 0 0 0 0 0 0 0 0 0 0 0 0 0 0 0 0 0 0 0 0 0 0 0 0 0 0 0 0 0 0 0 0 0 0 0 0 0 0 0
0 0 0 0 0 0 0 0 0 0 0 0 0 0 0 0 0 0 0 0 0 0 0 0 0 0 0 0 0 0 0 0 0 0 0 0 0 0 0 0 0 0 0 0 0 0 0 0 0
0 0 0 0 0 0 0 0 0 0 0 0 0 0 0 0 0 0 0 0 0 0 0 0 0 0 0 0 0 0 0 0 0 0 0 0 0 0 0 0 0 0 0 0 0 0 0 0 0
0 0 0 0 0 0 0 0 0 0 0 0 0 0 0 0 0 0 0 0 0 0 0 0 0 0 0 0 0 0 0 0 0 0 0 0 0 0 0 0 0 0 0 0 0 0 0 0 0
0 0 0 0 0 0 0 0 0 0 0 0 0 0 0 0 0 0 0 0 0 0 0 0 0 0 0 0 0 0 0 0 0 0 0 0 0 0 0 0 0 0 0 0 0 0 0 0 0
0 0 0 0 0 0 0 0 0 0 0 0 0 0 0 0 0 0 0 0 0 0 0 0 0 0 0 0 0 0 0 0 0 0 0 0 0 0 0 0 0 0 0 0 0 0 0 0 0
0 0 0 0 0 0 0 0 0 0 0 0 0 0 0 0 0 0 0 0 0 0 0 0 0 0 0 0 0 0 0 0 0 0 0 0 0 0 0 0 0 0 0 0 0 0 0 0 0
0 0 0 0 0 0 0 0 0 0 0 0 0 0 0 0 0 0 0 0 0 0 0 0 0 0 0 0 0 0 0 0 0 0 0 0 0 0 0 0 0 0 0 0 0 0 0 0 0
0 0 0 0 0 0 0 0 0 0 0 0 0 0 0 0 0 0 0 0 0 0 0 0 0 0 0 0 0 0 0 0 0 0 0 0 0 0 0 0 0 0 0 0 0 0 0 0 0
0 0 0 0 0 0 0 0 0 0 0 0 0 0 0 0 0 0 0 0 0 0 0 0 0 0 0 0 0 0 0 0 0 0 0 0 0 0 0 0 0 0 0 0 0 0 0 0 0
0 0 0 0 0 0 0 0 0 0 0 0 0 0 0 0 0 0 0 0 0 0 0 0 0 0 0 0 0 0 0 0 0 0 0 0 0 0 0 0 0 0 0 0 0 0 0 0 0
Wind_Speed
7 4 2 4 6 4 3 5 3 1 0 0 2 6 7 5 3 4 2 4 8 8 6 8 10 9 9 8 8 7 7 7 7 7 7 7 7 7 7 7 7 7 7 6 6 6 6 7 7
3 2 4 5 5 2 5 4 3 3 3 2 3 4 5 3 2 5 3 5 9 8 6 6 9 9 8 8 8 7 7 6 6 6 6 6 6 6 6 6 6 7 7 6 6 5 6 6 6
3 1 4 4 3 6 5 3 4 2 1 1 3 4 4 3 3 4 4 8 9 7 5 6 9 8 8 8 8 7 6 6 6 6 6 6 5 5 5 5 5 6 6 5 5 5 5 5 5
3 4 4 3 4 5 4 3 2 1 1 3 4 4 2 1 3 4 7 9 9 7 5 6 9 8 8 7 7 6 5 5 5 5 5 5 5 5 5 5 5 5 5 4 4 4 4 4 4
3 4 3 0 4 4 3 2 2 2 1 1 3 4 1 3 4 8 9 9 9 6 5 5 8 8 7 7 6 5 5 5 5 5 4 4 4 4 4 4 4 4 4 4 3 3 3 3 4
4 4 3 3 4 3 2 2 1 1 1 1 3 4 1 1 6 7 8 7 8 7 5 4 7 7 6 6 5 5 5 5 4 4 4 3 3 3 3 3 3 3 3 4 4 3 2 2 3
4 4 3 4 2 2 2 1 1 1 1 1 3 5 2 1 4 6 7 7 6 6 5 3 3 4 5 5 4 4 4 4 3 3 3 3 3 2 2 2 2 2 3 3 3 3 2 2 3
4 4 1 2 2 3 2 1 1 1 1 1 3 6 4 5 4 6 6 6 6 5 4 3 3 2 2 2 3 3 3 3 3 2 2 3 3 2 2 2 2 2 3 3 3 2 3 3 3
3 4 2 3 3 2 1 2 3 2 2 2 2 3 4 7 7 7 5 4 4 4 3 3 2 2 2 2 2 2 2 2 2 1 2 2 1 1 1 1 2 2 3 3 4 3 3 3 3
4 3 5 2 2 2 1 1 1 2 2 2 2 2 5 7 7 7 6 5 4 4 3 3 3 2 2 1 1 1 1 1 1 1 1 1 0 0 1 2 2 3 3 3 4 4 4 3 2
3 4 3 2 1 1 0 1 1 2 2 4 4 5 6 6 5 5 5 5 5 4 3 3 3 3 2 1 1 1 1 0 0 0 0 0 0 0 1 1 1 2 2 2 3 3 2 2 1
2 2 2 1 0 0 1 1 1 3 6 3 4 6 6 6 6 6 6 5 4 4 3 3 3 2 2 2 1 1 1 1 1 1 1 1 0 0 0 0 0 0 1 1 1 1 2 2 2
1 2 1 1 1 1 1 2 2 5 5 1 2 4 5 6 5 5 5 4 4 4 4 4 4 3 2 2 1 1 1 2 2 1 1 1 1 1 1 1 1 1 1 1 1 1 2 2 2
2 1 2 2 2 2 2 3 2 6 2 2 3 4 4 5 5 4 4 4 5 5 5 4 4 4 3 2 1 1 1 1 1 1 2 2 1 1 1 1 1 1 1 1 1 1 2 2 2
0 1 3 2 2 2 1 4 5 6 2 2 3 3 4 4 3 4 5 5 5 5 4 4 4 3 3 2 2 1 1 1 1 1 1 1 2 2 1 1 1 1 1 1 1 1 1 1 2
2 2 2 3 2 2 3 7 5 3 3 4 4 4 4 4 4 4 4 4 3 3 3 3 2 3 3 2 2 1 1 1 1 1 1 2 2 2 1 1 1 1 1 1 1 1 1 1 1
1 1 3 4 2 2 3 7 6 2 3 5 5 5 4 3 3 3 4 4 4 4 3 3 2 2 2 2 1 1 1 1 1 1 1 1 1 1 1 1 1 1 1 1 1 1 1 1 2
4 3 3 4 3 1 4 9 9 5 5 7 6 5 4 5 5 4 4 4 4 4 3 3 2 2 2 1 1 0 0 0 1 1 1 1 1 1 1 1 1 1 0 1 1 1 1 1 2
3 3 5 6 3 2 7 10 12 7 5 6 6 6 6 6 5 3 4 4 3 3 3 3 2 2 2 1 1 1 1 1 1 1 2 2 1 1 1 1 1 1 1 1 2 1 1 1 0
3 4 5 5 2 3 6 11 10 7 7 7 7 7 6 5 3 3 3 3 4 4 4 3 3 3 3 3 2 1 1 1 1 1 1 2 2 1 1 1 1 1 1 1 2 1 1 1 0
5 5 5 4 4 3 3 8 6 5 4 4 4 4 4 5 5 4 4 4 4 4 4 4 4 3 3 2 1 1 1 1 0 1 1 1 1 2 1 1 1 1 1 2 2 2 2 2 1
6 4 4 3 1 4 0 6 7 4 4 5 5 4 5 4 4 4 4 4 5 5 4 4 4 3 3 3 2 3 2 2 2 1 1 2 2 2 2 1 2 2 2 2 2 2 2 2 2
5 2 2 2 2 3 2 4 10 3 5 6 6 6 6 5 5 5 5 5 5 4 4 4 3 3 2 3 3 3 2 2 1 1 1 2 2 2 2 2 2 2 2 2 2 2 2 2 3
1 2 2 2 2 4 5 5 9 5 6 5 5 5 5 5 5 4 3 3 3 3 3 3 3 3 3 3 3 3 3 3 2 1 2 2 2 2 2 2 2 2 2 2 2 3 3 3 2
2 3 3 4 2 6 3 4 11 7 6 6 6 5 5 4 4 4 4 3 3 3 3 3 4 3 3 3 3 3 4 4 4 3 3 3 2 2 2 2 2 2 2 2 2 2 2 3 3
3 5 5 4 5 5 2 7 9 5 4 3 3 3 3 3 3 4 5 5 4 4 4 4 4 4 3 3 3 3 3 2 3 3 3 3 3 2 2 2 3 3 2 2 2 2 2 2 3
3 3 4 3 1 4 6 7 9 2 2 2 1 1 3 4 4 4 4 4 5 4 4 4 5 4 4 3 3 2 2 2 3 2 2 2 2 2 2 2 2 2 2 2 2 2 2 2 3
3 4 3 3 3 5 6 6 6 4 5 4 3 3 4 3 3 3 4 4 5 5 4 3 4 5 4 4 4 3 3 3 3 2 2 2 2 2 2 3 2 2 2 2 2 2 2 3 3
3 3 3 3 4 4 5 8 5 6 5 5 5 4 4 4 4 4 4 4 4 3 4 4 4 4 3 4 3 3 3 2 2 2 3 2 2 2 3 3 3 2 2 2 2 2 2 3 3
5 6 6 4 5 4 4 9 4 3 3 3 4 4 4 4 4 3 3 3 3 3 3 3 4 3 4 4 3 3 3 2 2 3 3 2 2 2 3 3 3 3 2 2 2 3 3 3 4
Wind_Direction
338 348 49 56 59 60 229 244 233 249 253 317 77 101 110 107 132 157 158 145 132 135 139 140 137 130 123 116 109 103 98 92 88 85 83 79 78 74 69 65 63 64 63 67 71 73 72 69 65
349 6 55 64 98 169 253 243 226 231 207 156 76 87 90 89 92 115 130 142 132 131 132 135 136 131 125 118 112 107 101 94 92 89 84 81 77 75 71 67 62 62 61 61 66 69 74 69 63
343 69 84 84 140 193 224 228 208 229 297 122 72 52 97 129 132 146 153 135 123 121 123 135 136 133 127 120 113 108 102 96 91 88 85 80 77 74 70 67 62 57 57 57 61 65 69 67 61
55 52 61 93 213 228 216 223 195 174 3 50 100 66 58 58 154 143 131 125 122 120 119 135 136 134 128 123 117 111 103 98 94 89 85 79 78 72 66 62 61 56 52 51 58 61 59 56 49
64 81 84 183 239 254 245 241 185 167 186 51 106 110 67 358 99 116 123 124 126 125 123 132 134 133 128 123 119 115 108 103 96 91 84 78 75 70 66 62 61 57 48 41 45 55 53 49 39
62 76 113 214 241 264 281 277 177 145 183 68 110 121 139 61 112 124 124 123 125 128 125 126 135 133 128 124 120 114 110 104 96 90 83 77 74 71 68 65 61 56 48 42 41 43 40 40 28
109 114 177 205 223 261 271 313 129 140 146 227 144 126 147 183 149 128 119 118 120 122 119 116 124 131 132 128 122 116 107 102 95 88 77 66 70 71 72 63 59 49 41 34 24 20 15 21 20
130 115 184 224 210 245 302 13 40 95 231 327 118 142 183 201 156 119 110 110 115 118 124 125 115 108 121 137 131 119 102 91 86 78 65 58 58 60 56 46 44 46 33 20 11 6 7 7 12
94 91 207 225 201 234 328 25 352 8 71 30 55 156 173 145 128 113 106 100 115 124 132 138 131 123 126 148 146 132 115 87 66 59 66 54 29 16 23 14 35 33 20 12 8 5 359 358 1
93 154 215 229 205 201 304 324 297 22 14 4 21 57 110 126 131 135 144 154 158 158 160 153 151 148 145 146 127 128 110 87 70 58 59 55 43 345 19 13 17 15 7 4 1 360 358 354 348
138 189 209 257 239 185 239 302 304 148 256 224 204 167 144 140 147 159 172 175 177 168 161 165 163 158 151 148 149 144 134 132 117 128 145 91 50 7 18 9 351 347 360 358 349 352 349 339 328
146 237 209 250 302 146 208 232 291 225 230 219 187 164 155 162 174 183 186 179 167 161 167 173 165 159 163 155 172 173 167 177 195 210 194 153 134 49 247 241 279 306 320 326 331 324 322 318 310
202 245 288 263 314 290 272 241 237 260 251 206 143 146 176 182 193 195 186 176 168 175 179 179 171 170 169 162 182 166 192 194 198 196 199 179 181 208 220 232 236 257 269 266 296 307 307 307 306
205 234 283 279 272 265 231 273 244 261 230 152 152 176 191 193 194 188 181 186 190 186 186 183 175 173 164 168 178 183 204 211 203 204 208 198 192 203 211 229 238 249 247 245 247 271 286 289 290
81 358 324 270 222 219 134 292 240 248 182 191 210 207 197 201 185 189 195 190 191 189 186 184 179 165 164 171 182 176 188 200 207 212 211 199 192 196 202 213 235 252 248 247 262 286 293 299 297
43 40 304 282 193 188 152 261 267 247 181 220 230 227 213 214 199 194 186 182 176 166 171 184 180 167 173 178 188 192 185 185 223 218 206 201 197 187 187 210 238 248 242 239 245 278 295 296 287
35 246 251 284 231 177 189 253 270 254 203 228 233 231 221 218 216 208 191 184 175 168 167 179 182 179 188 184 186 192 188 186 210 231 223 213 199 183 180 215 244 243 241 247 265 302 264 278 284
218 226 243 248 262 212 241 260 272 264 235 237 239 233 219 217 224 211 195 185 176 171 169 175 176 181 182 169 144 129 115 226 218 224 226 220 216 187 180 210 242 239 253 279 271 267 274 252 268
190 205 250 259 257 253 248 262 270 268 252 245 241 234 226 229 231 209 194 184 172 171 172 179 170 178 166 160 170 179 222 248 252 237 220 213 211 196 192 230 247 228 232 253 256 254 263 287 291
222 246 265 285 295 260 267 273 271 259 241 227 225 227 224 229 238 217 199 183 181 187 189 184 185 188 190 191 192 196 192 224 236 253 233 217 207 207 213 206 221 224 238 280 273 245 223 264 253
240 226 238 259 320 320 307 297 273 269 248 239 229 215 212 208 211 208 200 196 192 199 202 199 201 200 202 188 150 90 67 32 333 293 258 249 230 222 225 229 232 227 209 231 253 233 209 218 249
251 230 230 250 308 287 237 286 282 263 269 248 240 223 218 218 209 204 198 199 204 211 208 202 199 200 200 179 169 171 185 215 233 244 252 267 248 237 233 239 242 237 224 225 241 234 222 200 220
232 260 245 231 204 280 242 237 280 270 260 252 242 233 226 218 212 209 201 201 207 211 206 201 194 195 193 183 184 186 204 221 239 251 260 259 262 251 244 243 241 239 230 226 227 218 211 204 200
182 26 24 49 91 269 226 200 272 239 230 248 244 239 234 228 225 219 207 193 203 206 204 196 189 198 193 186 186 193 204 203 202 227 243 254 263 263 256 255 248 242 236 231 218 210 205 202 203
93 86 17 350 337 254 216 209 251 246 234 229 235 241 241 225 213 213 210 205 204 200 202 200 193 201 198 193 199 204 209 204 206 216 225 236 246 261 256 261 253 249 244 240 216 209 217 206 203
185 155 169 215 238 276 270 236 254 259 259 254 246 242 240 223 211 215 213 204 205 210 205 202 202 205 199 200 212 212 214 216 227 225 228 233 234 240 249 253 251 251 248 247 225 215 220 212 211
154 195 179 156 247 274 267 276 295 267 294 298 294 266 244 233 219 219 218 211 208 208 207 202 204 207 204 207 215 212 212 217 228 227 231 241 241 241 243 248 247 246 248 238 220 215 220 219 221
165 156 124 154 206 257 276 260 250 267 276 285 278 260 258 256 244 231 219 216 217 210 204 198 203 203 201 202 212 219 217 222 224 216 227 244 248 242 240 248 248 242 245 240 225 239 222 218 228
169 169 171 179 189 197 265 267 230 225 239 241 250 253 249 240 239 236 232 222 217 202 193 197 205 205 200 202 208 214 220 220 222 222 229 239 244 235 231 236 240 238 239 238 232 241 232 224 232
192 189 170 187 229 207 230 267 265 241 253 244 261 275 269 249 242 233 224 213 202 196 202 204 207 205 207 204 205 214 220 219 225 234 235 240 240 234 234 232 236 239 237 233 232 242 242 231 229